Find ERMIS 3

NORAD ID: 68425 Int'l Des: NNA 2026-067 Owner: NKUA Country: GR operational
LEOCIRCULARRETROGRADESSO

Live Position

Loading 3D Globe...

About ERMIS 3

Description loading...

Upcoming Passes

Passes for default location (London). Set your location on the main map for personalized predictions.

Altitude History

Loading altitude history...

Two-Line Element Set

1 68425U 26067K 26110.85684202 .00004050 00000-0 20128-3 0 9996
2 68425 97.4554 70.1989 0002648 125.9600 234.1880 15.18212500 3248
Epoch: Apr 20, 2026 • Age: 29 hours

Current Status

Altitude 519.7 km
Velocity 7.61 km/s
Sub-Earth Point 55.14°N, 168.73°W
Launch Date Mar 30, 2026
Age 23 days
Type other

Technical Details

Classification Payload
Mass 10.00 kg
Dry Mass 10.00 kg
Total Mass 10.00 kg
Length 0.30 m
Diameter 0.10 m
Span 0.30 m
Shape Box
Manufacturer NKUA
Bus Type Cubesat 6U
Phase Status In Orbit
Owner/State NKUA/GR

Most Searched